Toledo, OH

12:32 PM EST on November 17, 2019 (GMT -0500)
Toledo Express

Weather History for KTOL - October, 2019

Change the Weather History Date:

Sunday, October 20, 2019

  Actual Average Record
Temperature  
Mean Temperature 60 °F 51 °F  
Max Temperature 74 °F 61 °F 82 °F (1920)
Min Temperature 46 °F 41 °F 18 °F (1972)
Degree Days  
Heating Degree Days 5 14  
Month to date heating degree days 156 227  
Since 1 July heating degree days 161 351  
Cooling Degree Days 0 0  
Month to date cooling degree days 22 8  
Year to date cooling degree days 1105 792  
Growing Degree Days 10 (Base 50)    
Moisture  
Dew Point 46 °F    
Average Humidity 64    
Maximum Humidity 89    
Minimum Humidity 38    
Precipitation  
Precipitation 0.00 in 0.08 in 1.17 in (2016)
Month to date precipitation 1.11 1.70  
Year to date precipitation 38.00 27.80  
Snow  
Snow 0.00 in 0.00 in - ()
Month to date snowfall 0.0 0.1  
Since 1 July snowfall 0.0 0.1  
Since 1 September snowfall 0.0 0.1  
Snow Depth 0.00 in    
Sea Level Pressure  
Sea Level Pressure 29.88 in    
Wind  
Wind Speed 1 mph (SW)    
Max Wind Speed 9 mph    
Max Gust Speed 12 mph    
Visibility 10 miles    
Events      
T = Trace of Precipitation, MM = Missing Value Source: NWS Daily Summary

Daily Weather History Graph

Daily Weather History Graph

Search for Another Location

Airport or City:

Astronomy

Oct. 20, 2019 Rise Set
Actual Time 7:52 AM EDT 6:46 PM EDT
Civil Twilight 7:24 AM EDT 7:14 PM EDT
Nautical Twilight 6:52 AM EDT 7:47 PM EDT
Astronomical Twilight 6:20 AM EDT 8:19 PM EDT
Moon 11:51 PM EDT (10/20) 2:22 PM EDT (10/20)
Length of Visible Light 11h 50m
Length of Day
10h 54m
Waning Gibbous, 59% of the Moon is Illuminated
Oct 20
Waning Gibbous
Oct 21
Last Quarter
Oct 27
New
Nov 4
First Quarter
Nov 12
Full

Hourly Weather History & Observations

Time (EDT) Temp. Dew Point Humidity Pressure Visibility Wind Dir Wind Speed Gust Speed Precip Events Conditions
12:52 AM 51.1 °F 44.1 °F 77% 29.82 in 10.0 mi SE 3.5 mph - N/A   Clear
1:52 AM 52.0 °F 42.1 °F 69% 29.81 in 10.0 mi Calm Calm - N/A   Clear
2:52 AM 50.0 °F 43.0 °F 77% 29.80 in 10.0 mi Calm Calm - N/A   Clear
3:52 AM 46.0 °F 42.1 °F 86% 29.80 in 10.0 mi Calm Calm - N/A   Clear
4:52 AM 46.9 °F 43.0 °F 86% 29.79 in 10.0 mi Calm Calm - N/A   Clear
5:52 AM 48.0 °F 43.0 °F 83% 29.81 in 10.0 mi Calm Calm - N/A   Clear
6:52 AM 48.9 °F 44.1 °F 83% 29.82 in 10.0 mi Calm Calm - N/A   Mostly Cloudy
7:52 AM 48.9 °F 45.0 °F 86% 29.83 in 10.0 mi Calm Calm - N/A   Mostly Cloudy
8:52 AM 52.0 °F 45.0 °F 77% 29.85 in 10.0 mi Calm Calm - N/A   Mostly Cloudy
9:52 AM 55.9 °F 45.0 °F 67% 29.87 in 10.0 mi SW 3.5 mph - N/A   Overcast
10:52 AM 57.9 °F 46.0 °F 65% 29.88 in 10.0 mi West 3.5 mph - N/A   Overcast
11:52 AM 59.0 °F 46.0 °F 62% 29.90 in 10.0 mi Calm Calm - N/A   Overcast
12:52 PM 64.0 °F 48.0 °F 56% 29.90 in 10.0 mi Variable 3.5 mph - N/A   Overcast
1:52 PM 69.1 °F 48.0 °F 47% 29.90 in 10.0 mi Calm Calm - N/A   Scattered Clouds
2:52 PM 72.0 °F 45.0 °F 38% 29.89 in 10.0 mi Calm Calm - N/A   Clear
3:52 PM 72.0 °F 44.1 °F 37% 29.88 in 10.0 mi Calm Calm - N/A   Clear
4:52 PM 73.0 °F 46.0 °F 38% 29.90 in 10.0 mi WSW 4.6 mph - N/A   Clear
5:52 PM 69.1 °F 48.9 °F 49% 29.90 in 10.0 mi Calm Calm - N/A   Clear
6:52 PM 59.0 °F 48.9 °F 69% 29.91 in 10.0 mi Calm Calm - N/A   Clear
7:52 PM 55.9 °F 50.0 °F 80% 29.94 in 10.0 mi Calm Calm - N/A   Mostly Cloudy
8:52 PM 54.0 °F 50.0 °F 86% 29.96 in 10.0 mi Calm Calm - N/A   Overcast
9:52 PM 53.1 °F 48.9 °F 86% 29.96 in 10.0 mi ENE 3.5 mph - N/A   Partly Cloudy
10:52 PM 52.0 °F 46.9 °F 83% 29.96 in 10.0 mi Calm Calm - N/A   Clear
11:52 PM 50.0 °F 46.9 °F 89% 29.96 in 10.0 mi Calm Calm - N/A   Clear